metlocid,date_time,avg_surfchange_cm,std_surfchange_cm,min_surfchange_cm,max_surfchange_cm,n_surfchange_cm,n_comments
VIAM,1/26/04,2.359459497,0.049774336,2.3,2.4,37,0
VIAM,1/27/04,2.339583352,0.057085711,2.2,2.4,96,0
VIAM,1/28/04,2.333333333,0.062688354,2.2,2.5,96,0
VIAM,1/29/04,2.333333333,0.062688354,2.2,2.5,96,0
VIAM,1/30/04,2.329166661,0.084500611,2.2,2.5,96,0
VIAM,1/31/04,2.291666677,0.091383172,2.1,2.4,96,0
VIAM,2/1/04,2.298958341,0.112852796,1.9,2.4,96,0
VIAM,2/2/04,2.334375006,0.111287357,2,2.5,96,0
VIAM,2/3/04,2.298958346,0.082710398,2.2,2.5,96,0
VIAM,2/4/04,2.292708352,0.111680781,2,2.4,96,0
VIAM,2/5/04,2.310416686,0.093447662,2.1,2.4,96,0
VIAM,2/6/04,2.301041697,0.099994542,2,2.4,96,0
VIAM,2/7/04,2.315625007,0.075850461,2.2,2.5,96,0
VIAM,2/8/04,2.316666653,0.047387953,2.2,2.4,96,0
VIAM,2/9/04,2.327083342,0.092314309,2.2,2.5,96,0
VIAM,2/10/04,2.308333327,0.05743038,2.2,2.4,96,0
VIAM,2/11/04,2.28854167,0.088102597,2.1,2.4,96,0
VIAM,2/12/04,2.193749967,0.121232712,2,2.4,96,0
VIAM,2/13/04,2.202083337,0.161557689,1.8,2.4,96,0
VIAM,2/14/04,2.162500004,0.186519388,1.8,2.4,96,0
VIAM,2/15/04,2.133333323,0.158722988,1.9,2.4,96,0
VIAM,2/16/04,2.17916667,0.100437644,1.9,2.3,96,0
VIAM,2/17/04,2.180208335,0.123646183,1.9,2.4,96,0
VIAM,2/18/04,2.175000022,0.201572804,1.8,2.4,96,0
VIAM,2/19/04,2.163541667,0.187571644,1.8,2.4,96,0
VIAM,2/20/04,2.165624996,0.147846403,1.9,2.4,96,0
VIAM,2/21/04,2.178124997,0.161703537,1.9,2.4,96,0
VIAM,2/22/04,2.154166664,0.129709521,1.9,2.3,96,0
VIAM,2/23/04,2.228124999,0.07211559,2.1,2.4,96,0
VIAM,2/24/04,4.402083357,4.504079569,2.1,16.7,96,0
VIAM,2/25/04,16.53586945,1.312792647,12.2,17.9,92,4
VIAM,2/26/04,16.89374999,1.117027182,13.1,17.9,96,0
VIAM,2/27/04,17.60729164,0.27691696,17.2,18.1,96,0
VIAM,2/28/04,16.88333321,0.188437864,16.5,17.2,96,0
VIAM,2/29/04,16.35104162,0.254639205,15.9,16.8,96,0
VIAM,3/1/04,15.73125002,0.126750802,15.4,15.9,96,0
VIAM,3/2/04,15.49375002,0.080541145,15.3,15.6,96,0
VIAM,3/3/04,15.29895835,0.117423743,15.1,15.5,96,0
VIAM,3/4/04,15.16666675,0.121972147,14.9,15.3,96,0
VIAM,3/5/04,15.06354175,0.107722696,14.8,15.2,96,0
VIAM,3/6/04,15.02395838,0.109299208,14.8,15.2,96,0
VIAM,3/7/04,14.53645837,0.916873426,11.7,15.1,96,0
VIAM,3/8/04,15.03645835,0.096376391,14.9,15.2,96,0
VIAM,3/9/04,14.99895837,0.081427987,14.8,15.1,96,0
VIAM,3/10/04,14.97187497,0.085474845,14.8,15.1,96,0
VIAM,3/11/04,14.93749988,0.094312054,14.7,15.1,96,0
VIAM,3/12/04,14.9437499,0.099273842,14.7,15.1,96,0
VIAM,3/13/04,14.92916648,0.079361608,14.7,15.1,96,0
VIAM,3/14/04,14.8999999,0.087057159,14.8,15.1,96,0
VIAM,3/15/04,14.84583326,0.073865554,14.7,15,96,0
VIAM,3/16/04,14.83958335,0.105110645,14.7,15.1,96,0
VIAM,3/17/04,14.91354158,0.078966692,14.8,15,96,0
VIAM,3/18/04,14.60416675,0.121323126,14.4,14.9,96,0
VIAM,3/19/04,14.54375005,0.099273827,14.4,14.8,96,0
VIAM,3/20/04,14.57187493,0.110218097,14.4,14.7,96,0
VIAM,3/21/04,14.60729179,0.077112018,14.4,14.7,96,0
VIAM,3/22/04,14.5677083,0.159271242,14.2,14.8,96,0
VIAM,3/23/04,14.36041672,0.241259261,14.1,14.7,96,0
VIAM,3/24/04,14.56770838,0.124388954,14.1,14.8,96,0
VIAM,3/25/04,15.30312504,0.588746017,14.3,16.4,96,0
VIAM,3/26/04,16.63541679,0.128127514,16.4,16.8,96,0
VIAM,3/27/04,16.58229198,0.079465346,16.4,16.7,96,0
VIAM,3/28/04,16.71041685,0.176205035,16.4,17.1,96,0
VIAM,3/29/04,17.01458347,0.109524678,16.7,17.2,96,0
VIAM,3/30/04,17.29583319,0.123045792,17,17.4,96,0
VIAM,3/31/04,17.02916678,0.102512692,16.8,17.2,96,0
VIAM,4/1/04,16.96354153,0.099599357,16.8,17.1,96,0
VIAM,4/2/04,17.05520841,0.532297897,14.3,17.5,96,0
VIAM,4/3/04,12.8427082,0.572482082,11.3,14.3,96,0
VIAM,4/4/04,12.86562488,0.0612639,12.8,13,96,0
VIAM,4/5/04,12.8406249,0.076196468,12.7,13,96,0
VIAM,4/6/04,12.83854158,0.099862809,12.7,13,96,0
VIAM,4/7/04,12.94999985,0.058038218,12.8,13,96,0
VIAM,4/8/04,12.84374996,0.207649685,11.8,13,96,0
VIAM,4/9/04,13.00625002,0.147835359,11.9,13.2,96,0
VIAM,4/10/04,12.90416653,0.072426556,12.8,13,96,0
VIAM,4/11/04,12.85729153,0.049724837,12.8,12.9,96,0
VIAM,4/12/04,12.75729157,0.072176397,12.7,12.9,96,0
VIAM,4/13/04,12.93749997,0.101825499,12.7,13.1,96,0
VIAM,4/14/04,13.01250009,0.097602968,12.8,13.2,96,0
VIAM,4/15/04,13.20729174,0.103867145,13,13.3,96,0
VIAM,4/16/04,13.10312513,0.078744223,12.9,13.2,96,0
VIAM,4/17/04,13.11875013,0.068537219,13,13.2,96,0
VIAM,4/18/04,13.03333342,0.069079323,12.9,13.2,96,0
VIAM,4/19/04,13.03958344,0.057085759,13,13.2,96,0
VIAM,4/20/04,12.9645832,0.069553981,12.9,13.1,96,0
VIAM,4/21/04,12.99479165,0.074508908,12.9,13.1,96,0
VIAM,4/22/04,13.2354167,0.087032055,13,13.3,96,0
VIAM,4/23/04,13.15833337,0.080350008,13,13.3,96,0
VIAM,4/24/04,13.00312497,0.083921398,12.9,13.2,96,0
VIAM,4/25/04,12.97708334,0.102062187,12.8,13.2,96,0
VIAM,4/26/04,13.11250011,0.072909353,13,13.2,96,0
VIAM,4/27/04,13.05312508,0.082018227,12.9,13.2,96,0
VIAM,4/28/04,12.9677083,0.102078309,12.8,13.2,96,0
VIAM,4/29/04,12.89999998,0.106622838,12.7,13.1,96,0
VIAM,4/30/04,12.99166671,0.090224067,12.8,13.1,96,0
VIAM,5/1/04,12.85416663,0.10849853,12.7,13.1,96,0
VIAM,5/2/04,12.72083346,0.081971283,12.6,12.8,96,0
VIAM,5/3/04,12.61458348,0.07810804,12.5,12.8,96,0
VIAM,5/4/04,12.49583332,0.059677723,12.4,12.6,96,0
VIAM,5/5/04,12.47916659,0.076663145,12.4,12.6,96,0
VIAM,5/6/04,12.47812492,0.0698921,12.4,12.6,96,0
VIAM,5/7/04,12.5177084,0.04811144,12.4,12.6,96,0
VIAM,5/8/04,12.48541661,0.045835502,12.4,12.6,96,0
VIAM,5/9/04,12.51250005,0.069962663,12.4,12.6,96,0
VIAM,5/10/04,12.68125003,0.074427553,12.5,12.8,96,0
VIAM,5/11/04,12.73437502,0.062958911,12.6,12.8,96,0
VIAM,5/12/04,12.67187505,0.061048764,12.6,12.8,96,0
VIAM,5/13/04,12.67395841,0.066877252,12.6,12.8,96,0
VIAM,5/14/04,12.78020826,0.09247454,12.7,13,96,0
VIAM,5/15/04,7.267708359,4.996093148,1.9,13.2,96,0
VIAM,5/16/04,2.848958363,0.162865637,2.5,3.2,96,0
VIAM,5/17/04,2.606249963,0.075131473,2.4,2.7,96,0
VIAM,5/18/04,2.528125003,0.122863308,2.3,2.7,96,0
VIAM,5/19/04,2.561458285,0.065485661,2.4,2.7,96,0
VIAM,5/20/04,2.475000024,0.072547556,2.4,2.6,96,0
VIAM,5/21/04,2.517708344,0.126486737,2.3,2.8,96,0
VIAM,5/22/04,2.881250016,0.151005411,2.6,3.2,96,0
VIAM,5/23/04,2.485416681,0.085813921,2.3,2.7,96,0
VIAM,5/24/04,2.320833335,0.070958377,2.2,2.5,96,0
VIAM,5/25/04,2.218750002,0.094381685,2.1,2.4,96,0
VIAM,5/26/04,2.162500006,0.104880908,1.9,2.4,96,0
VIAM,5/27/04,1.983333305,0.109223735,1.9,2.4,96,0
VIAM,5/28/04,3.348958331,0.422771509,2.4,3.7,96,0
VIAM,5/29/04,3.673958364,0.212377432,3.2,4,96,0
VIAM,5/30/04,3.367708333,0.094584746,3.2,3.6,96,0
VIAM,5/31/04,3.336458328,0.099598982,3.2,3.5,96,0
VIAM,6/1/04,4.203125045,0.280395629,3.4,4.7,96,0
VIAM,6/2/04,4.480208317,0.176288999,4.2,4.7,96,0
VIAM,6/3/04,4.792708452,0.079795578,4.6,5,96,0
VIAM,6/4/04,4.438541636,0.189941636,4.2,4.7,96,0
VIAM,6/5/04,4.266666611,0.094775928,4.2,4.5,96,0
VIAM,6/6/04,4.269791663,0.084753383,4.1,4.4,96,0
VIAM,6/7/04,2.90208335,0.823979979,1.7,6.3,96,0
VIAM,6/8/04,2.352083335,0.209751333,1.9,3,96,0
VIAM,6/9/04,2.285416653,0.104608751,2.1,2.5,96,0
VIAM,6/10/04,2.079166656,0.128076201,1.8,2.3,96,0
VIAM,6/11/04,1.605208332,0.199140141,1.2,1.9,96,0
VIAM,6/12/04,1.324999972,0.095145312,1.1,1.6,96,0
VIAM,6/13/04,1.214583344,0.116960763,1,1.5,96,0
VIAM,6/14/04,1.180208342,0.135039786,0.9,1.4,96,0
VIAM,6/15/04,1.165625021,0.093839859,1,1.4,96,0
VIAM,6/16/04,1.179166694,0.104545794,1,1.5,96,0
VIAM,6/17/04,1.205208338,0.097731935,0.9,1.3,96,0
VIAM,6/18/04,1.108333359,0.086653191,0.9,1.2,96,0
VIAM,6/19/04,1.159375023,0.070454339,1.1,1.3,96,0
VIAM,6/20/04,1.185416666,0.109524469,1,1.3,96,0
VIAM,6/21/04,0.754166671,0.221913531,0.5,1.1,96,0
VIAM,6/22/04,0.501041678,0.091184945,0.3,0.6,96,0
VIAM,6/23/04,0.428125007,0.093699547,0.3,0.6,96,0
VIAM,6/24/04,0.313541672,0.10323177,0.2,0.5,96,0
VIAM,6/25/04,0.228125006,0.093699551,0.1,0.4,96,0
VIAM,6/26/04,0.178125004,0.077055179,0.1,0.3,96,0
VIAM,6/27/04,0.162500003,0.069962398,0,0.3,96,0
VIAM,6/28/04,0.158333337,0.120233694,0,0.4,96,0
VIAM,6/29/04,0.057291668,0.091473082,-0.1,0.2,96,0
VIAM,6/30/04,0.038541667,0.111798497,-0.1,0.2,96,0
VIAM,7/1/04,-0.044791667,0.064676999,-0.2,0.1,96,0
VIAM,7/2/04,0.023958334,0.077791614,-0.1,0.1,96,0
VIAM,7/3/04,0.044791667,0.085679688,-0.1,0.2,96,0
VIAM,7/4/04,0.275000004,0.191942976,0,0.7,96,0
VIAM,7/5/04,0.218750005,0.137122691,0,0.5,96,0
VIAM,7/6/04,-0.055208334,0.123858828,-0.3,0.2,96,0
VIAM,7/7/04,-0.030208334,0.130682255,-0.3,0.2,96,0
VIAM,7/8/04,-0.150000003,0.172900948,-0.4,0.2,96,0
VIAM,7/9/04,-0.350000006,0.14363697,-0.6,0,96,0
VIAM,7/10/04,-0.075000003,0.196281221,-0.4,0.2,96,0
VIAM,7/11/04,-0.170833338,0.121323119,-0.4,0.1,96,0
VIAM,7/12/04,0.117708336,0.189178166,-0.2,0.5,96,0
VIAM,7/13/04,0.130208336,0.175391171,-0.3,0.4,96,0
VIAM,7/14/04,0.035416668,0.124798086,-0.1,0.3,96,0
VIAM,7/15/04,-0.038541668,0.125965572,-0.3,0.2,96,0
VIAM,7/16/04,-0.146875004,0.108533894,-0.3,0.1,96,0
VIAM,7/17/04,-0.28020834,0.076254136,-0.4,-0.2,96,0
VIAM,7/18/04,0.150000003,0.214230572,-0.2,0.5,96,0
VIAM,7/19/04,-0.067708335,0.110971589,-0.3,0.2,96,0
VIAM,7/20/04,-0.328125008,0.15127746,-0.6,0,96,0
VIAM,7/21/04,-0.312500004,0.135530148,-0.5,-0.1,96,0
VIAM,7/22/04,-0.385416671,0.214711148,-0.7,-0.1,96,0
VIAM,7/23/04,-0.739583333,0.091166898,-0.9,-0.5,96,0
VIAM,7/24/04,-0.344791671,0.305345291,-0.9,0.1,96,0
VIAM,7/25/04,-0.063541668,0.145182134,-0.3,0.3,96,0
VIAM,7/26/04,-0.378125005,0.118945474,-0.5,-0.1,96,0
VIAM,7/27/04,-0.537500011,0.063660292,-0.6,-0.4,96,0
VIAM,7/28/04,-0.571875009,0.077735212,-0.7,-0.4,96,0
VIAM,7/29/04,-0.578125002,0.118057186,-0.8,-0.4,96,0
VIAM,7/30/04,-0.280208338,0.12865277,-0.5,-0.1,96,0
VIAM,7/31/04,-0.343750008,0.080540932,-0.5,-0.2,96,0
VIAM,8/1/04,-0.283333339,0.393276841,-0.6,0.4,96,0
VIAM,8/2/04,0.365625005,0.122111359,0,0.5,96,0
VIAM,8/3/04,0.112500003,0.111685652,-0.1,0.4,96,0
VIAM,8/4/04,0.12291667,0.15181649,-0.2,0.4,96,0
VIAM,8/5/04,-0.010416667,0.190555519,-0.3,0.6,96,0
VIAM,8/6/04,-0.087500002,0.161734027,-0.5,0.2,96,0
VIAM,8/7/04,0.0375,0.148855284,-0.3,0.4,96,0
VIAM,8/8/04,0.116666669,0.147017128,-0.2,0.4,96,0
VIAM,8/9/04,-0.008333334,0.111134503,-0.3,0.3,96,0
VIAM,8/10/04,0.085416668,0.098386101,-0.1,0.3,96,0
VIAM,8/11/04,0.183333338,0.131922362,-0.2,0.4,96,0
VIAM,8/12/04,0.180208337,0.096920797,0,0.4,96,0
VIAM,8/13/04,0.112500002,0.072909462,0,0.2,96,0
VIAM,8/14/04,0.009375,0.06970332,-0.1,0.1,96,0
VIAM,8/15/04,-0.004166667,0.06141604,-0.1,0.1,96,0
VIAM,8/16/04,-0.070833334,0.06141604,-0.2,0,96,0
VIAM,8/17/04,-0.113541668,0.065886333,-0.2,0,96,0
VIAM,8/18/04,-0.192708339,0.099731002,-0.3,0,96,0
VIAM,8/19/04,-0.447916672,0.099450241,-0.7,-0.3,96,0
VIAM,8/20/04,-0.561458335,0.108937246,-0.7,-0.3,96,0
VIAM,8/21/04,-0.252083339,0.092882686,-0.5,-0.1,96,0
VIAM,8/22/04,-0.48645834,0.071993852,-0.6,-0.4,96,0
VIAM,8/23/04,-0.465625003,0.055872269,-0.6,-0.4,96,0
VIAM,8/24/04,-0.338541671,0.341935603,-1.3,0.3,96,0
VIAM,8/25/04,-1.368749989,0.123384294,-1.7,-1.1,96,0
VIAM,8/26/04,-1.376041658,0.163349652,-1.8,-1.2,96,0
VIAM,8/27/04,-1.314583347,0.219558959,-1.9,-1.1,96,0
VIAM,8/28/04,-1.437499985,0.12669901,-1.7,-1.3,96,0
VIAM,8/29/04,-1.487500009,0.207871409,-1.8,-1,96,0
VIAM,8/30/04,-1.275,0.136882567,-1.8,-0.9,96,0
VIAM,8/31/04,-0.575000005,0.183532582,-1,-0.3,96,0
VIAM,9/1/04,-0.469791672,0.18187317,-1,-0.3,96,0
VIAM,9/2/04,-0.600000006,0.112390295,-1,-0.5,96,0
VIAM,9/3/04,-0.778124997,0.162353166,-1.3,-0.6,96,0
VIAM,9/4/04,-0.679166672,0.220962807,-1.1,-0.4,96,0
VIAM,9/5/04,-0.457291674,0.590404829,-1.4,1.6,96,0
VIAM,9/6/04,-0.652083336,0.108559134,-0.9,-0.5,96,0
VIAM,9/7/04,-0.641666676,0.112077668,-0.8,-0.5,96,0
VIAM,9/8/04,-0.755208333,0.127212858,-1,-0.5,96,0
VIAM,9/9/04,-0.845833326,0.126421739,-1.1,-0.6,96,0
VIAM,9/10/04,-0.889583331,0.16763317,-1.2,-0.6,96,0
VIAM,9/11/04,-0.718750001,0.181405325,-1.3,-0.5,96,0
VIAM,9/12/04,-0.70937501,0.118834797,-1,-0.5,96,0
VIAM,9/13/04,-0.354166671,0.229377496,-0.8,-0.1,96,0
VIAM,9/14/04,-0.221875005,0.121571402,-0.5,-0.1,96,0
VIAM,9/15/04,-0.40208334,0.111430099,-0.6,-0.2,96,0
VIAM,9/16/04,-0.296875005,0.140265258,-0.6,-0.1,96,0
VIAM,9/17/04,-0.420833341,0.117801498,-0.7,-0.2,96,0
VIAM,9/18/04,-0.562500007,0.140862006,-0.8,-0.3,96,0
VIAM,9/19/04,-0.457291678,0.132779829,-0.7,-0.3,96,0
VIAM,9/20/04,-0.326041673,0.119863776,-0.6,-0.2,96,0
VIAM,9/21/04,-0.480208341,0.1526053,-0.8,-0.2,96,0
VIAM,9/22/04,-0.311458339,0.118650121,-0.6,-0.2,96,0
VIAM,9/23/04,-0.452083338,0.155583225,-0.8,-0.1,96,0
VIAM,9/24/04,-0.460416676,0.161883108,-0.8,-0.2,96,0
VIAM,9/25/04,-0.177083347,0.593558258,-0.8,1,96,0
VIAM,9/26/04,1.05416668,0.204639182,0.3,1.4,96,0
VIAM,9/27/04,0.84270833,0.153379331,0.5,1.1,96,0
VIAM,9/28/04,0.95625,0.102405292,0.8,1.2,96,0
VIAM,9/29/04,1.015625009,0.107926038,0.8,1.2,96,0
VIAM,9/30/04,0.966666666,0.099118937,0.8,1.1,96,0
VIAM,10/1/04,1.000000002,0.087057165,0.8,1.2,96,0
VIAM,10/2/04,0.963541662,0.079630461,0.8,1.1,96,0
VIAM,10/3/04,0.941666665,0.121106023,0.7,1.1,96,0
VIAM,10/4/04,0.984374999,0.111759278,0.7,1.2,96,0
VIAM,10/5/04,1.006250006,0.118599301,0.8,1.2,96,0
VIAM,10/6/04,0.951041675,0.190840145,0.4,1.2,96,0
VIAM,10/7/04,1.017708343,0.12396503,0.6,1.2,96,0
VIAM,10/8/04,1.338541669,0.272751979,0.8,1.8,96,0
VIAM,10/9/04,1.183333337,0.154010693,0.8,1.4,96,0
VIAM,10/10/04,1.069791676,0.145182133,0.8,1.4,96,0
VIAM,10/11/04,1.166666689,0.193399856,1,1.8,96,0
VIAM,10/12/04,1.910416661,0.754701621,1.5,4.6,96,0
VIAM,10/13/04,4.449999993,0.160262897,4.1,4.7,96,0
VIAM,10/14/04,4.441666683,0.144853165,4.1,4.7,96,0
VIAM,10/15/04,4.435416723,0.097310244,4.1,4.6,96,0
VIAM,10/16/04,4.495833337,0.099383973,4.3,4.7,96,0
VIAM,10/17/04,4.439583371,0.118302988,4.2,4.7,96,0
VIAM,10/18/04,4.436458334,0.136204006,4.1,4.7,96,0
VIAM,10/19/04,4.452083324,0.123951739,4.2,4.6,96,0
VIAM,10/20/04,4.476041685,0.104372517,4.2,4.6,96,0
VIAM,10/21/04,4.440625037,0.082816358,4.2,4.6,96,0
VIAM,10/22/04,4.376041705,0.246552959,3.4,4.7,96,0
VIAM,10/23/04,4.533333284,0.454374411,3.2,6.1,96,0
VIAM,10/24/04,4.409375047,0.114320037,4.2,4.6,96,0
VIAM,10/25/04,4.33750008,0.114478238,4,4.6,96,0
VIAM,10/26/04,4.4302084,0.078297323,4.3,4.6,96,0
VIAM,10/27/04,4.331249982,0.161122749,4.1,4.6,96,0
VIAM,10/28/04,5.643750027,3.003324972,4.2,14.3,96,0
VIAM,10/29/04,14.03541674,0.601748243,12.4,14.4,96,0
VIAM,10/30/04,12.78020825,0.086596216,12.7,13,96,0
VIAM,10/31/04,12.78749983,0.097602808,12.7,13,96,0
VIAM,11/1/04,12.71145836,0.089289296,12.5,12.9,96,0
VIAM,11/2/04,12.63854176,0.098803125,12.4,12.8,96,0
VIAM,11/3/04,11.89479164,1.111885047,8.8,12.7,96,0
VIAM,11/4/04,10.14583333,0.270639295,9.3,10.7,96,0
VIAM,11/5/04,9.839583337,0.583722921,8.5,10.3,96,0
VIAM,11/6/04,10.04791661,0.470605273,8.4,10.6,96,0
VIAM,11/7/04,9.772916615,0.20950026,9.2,10.1,96,0
VIAM,11/8/04,9.362499893,0.718807471,7,10,96,0
VIAM,11/9/04,8.800000042,0.877556411,7,9.6,96,0
VIAM,11/10/04,8.821875026,0.297074528,8.2,9.3,96,0
VIAM,11/11/04,8.714583427,0.341198832,8.1,9.1,96,0
VIAM,11/12/04,7.939583391,0.314384662,7.2,8.4,96,0
VIAM,11/13/04,7.827083379,0.189447555,7.5,8.2,96,0
VIAM,11/14/04,6.922916661,0.741190919,5,7.8,96,0
VIAM,11/15/04,4.758333333,1.095701341,3.1,6.2,96,0
VIAM,11/16/04,1.385416664,1.584130454,-0.7,3.2,96,0
VIAM,11/17/04,-0.617708338,0.115161023,-0.8,-0.4,96,0
VIAM,11/18/04,-0.77395833,0.184815577,-1.2,-0.4,96,0
VIAM,11/19/04,-0.76666667,0.176317092,-1.1,-0.4,96,0
VIAM,11/20/04,-0.792708329,0.111680734,-1,-0.6,96,0
VIAM,11/21/04,-0.337500007,0.162383555,-0.9,-0.1,96,0
VIAM,11/22/04,-0.339583339,0.103088277,-0.5,-0.1,96,0
VIAM,11/23/04,-0.271875005,0.118502166,-0.5,-0.1,96,0
VIAM,11/24/04,-0.291666671,0.14985373,-0.5,0,96,0
VIAM,11/25/04,-0.087500008,0.443490936,-0.4,1,96,0
VIAM,11/26/04,0.658333333,0.230636032,0.2,1,96,0
VIAM,11/27/04,0.014583333,0.323461275,-0.4,0.5,96,0
VIAM,11/28/04,-0.334375006,0.107437253,-0.5,0,96,0
VIAM,11/29/04,-0.246875006,0.116033686,-0.4,-0.1,96,0
VIAM,11/30/04,-0.244791672,0.119534002,-0.5,0,96,0
VIAM,12/1/04,-0.402083337,0.128127538,-0.5,-0.1,96,0
VIAM,12/2/04,-0.417708339,0.080778828,-0.6,-0.3,96,0
VIAM,12/3/04,-0.440625003,0.104204374,-0.7,-0.2,96,0
VIAM,12/4/04,-0.422916672,0.110956763,-0.7,-0.2,96,0
VIAM,12/5/04,-0.475000008,0.097332855,-0.7,-0.3,96,0
VIAM,12/6/04,-0.429166672,0.084500594,-0.6,-0.3,96,0
VIAM,12/7/04,-0.407291672,0.069954555,-0.5,-0.3,96,0
VIAM,12/8/04,-0.407291672,0.098669881,-0.6,-0.2,96,0
VIAM,12/9/04,-0.413541672,0.080288675,-0.6,-0.3,96,0
VIAM,12/10/04,-0.41770834,0.090605905,-0.6,-0.2,96,0
VIAM,12/11/04,-0.376041674,0.066085733,-0.5,-0.3,96,0
VIAM,12/12/04,-0.387500007,0.033245496,-0.4,-0.3,96,0
VIAM,12/13/04,-0.342708342,0.057573369,-0.4,-0.2,96,0
VIAM,12/14/04,-0.336458342,0.061763199,-0.5,-0.2,96,0
VIAM,12/15/04,-0.339583343,0.083953831,-0.6,-0.1,96,0
VIAM,12/16/04,-0.375000006,0.066490996,-0.5,-0.2,96,0
VIAM,12/17/04,-0.361458342,0.048924841,-0.4,-0.3,96,0
VIAM,12/18/04,-0.345833343,0.05008764,-0.4,-0.3,96,0
VIAM,12/19/04,-0.367708341,0.04700457,-0.4,-0.3,96,0
VIAM,12/20/04,-0.395833339,0.059677494,-0.5,-0.2,96,0
VIAM,12/21/04,-0.416666672,0.062688309,-0.5,-0.3,96,0
VIAM,12/22/04,-0.309375009,0.058179622,-0.4,-0.2,96,0
VIAM,12/23/04,-0.314583344,0.045835326,-0.4,-0.2,96,0
VIAM,12/24/04,-0.362500008,0.048666423,-0.4,-0.3,96,0
VIAM,12/25/04,-0.316666676,0.062688313,-0.4,-0.2,96,0
VIAM,12/26/04,-0.319791676,0.057344373,-0.4,-0.2,96,0
VIAM,12/27/04,-0.316666678,0.03746343,-0.4,-0.3,96,0
VIAM,12/28/04,-0.257291676,0.083027953,-0.3,0,96,0
VIAM,12/29/04,-0.179166672,0.122187666,-0.3,0,96,0
VIAM,12/30/04,-0.273958342,0.050772544,-0.4,-0.2,96,0
VIAM,12/31/04,-0.261458342,0.048924848,-0.3,-0.2,96,0
VIAM,1/1/05,-0.245833341,0.064753247,-0.3,-0.1,96,0
VIAM,1/2/05,-0.213541672,0.073441412,-0.3,-0.1,96,0
VIAM,1/3/05,-0.228125006,0.053710975,-0.3,-0.1,96,0
VIAM,1/4/05,-0.273958342,0.050772544,-0.4,-0.2,96,0
VIAM,1/5/05,-0.284375009,0.077225748,-0.4,-0.1,96,0
VIAM,1/6/05,-0.125000002,0.052314837,-0.2,0,96,0
VIAM,1/7/05,-0.190625003,0.041239035,-0.3,-0.1,96,0
VIAM,1/8/05,-0.134375003,0.062958845,-0.3,-0.1,96,0
VIAM,1/9/05,-0.059375001,0.078911177,-0.1,0.2,96,0
VIAM,1/10/05,-0.032291667,0.047004573,-0.1,0,96,0
VIAM,1/11/05,-0.050000001,0.071081866,-0.1,0.1,96,0
VIAM,1/12/05,-0.038541667,0.056883615,-0.1,0.1,96,0
VIAM,1/13/05,0,0.05026247,-0.1,0.1,96,0
VIAM,1/14/05,-0.0125,0.044128998,-0.1,0.1,96,0
VIAM,1/15/05,0.069791668,0.098536441,-0.1,0.2,96,0
VIAM,1/16/05,0.141666669,0.049559464,0.1,0.2,96,0
VIAM,1/17/05,0.107291668,0.077112075,-0.2,0.2,96,0
VIAM,1/18/05,0.136458335,0.058254961,0,0.2,96,0
VIAM,1/19/05,0.140625002,0.057267839,0,0.2,96,0
VIAM,1/20/05,0.151041669,0.050251561,0.1,0.2,96,0
VIAM,1/21/05,0.154166669,0.057886763,0,0.2,96,0
VIAM,1/22/05,0.150000002,0.058038101,0,0.2,96,0
VIAM,1/23/05,0.129166669,0.045691568,0.1,0.2,96,0
VIAM,1/24/05,0.116666668,0.037463433,0.1,0.2,96,0
VIAM,1/25/05,0.169791669,0.04615715,0.1,0.2,96,0
VIAM,1/26/05,0.19166667,0.040175057,0.1,0.3,96,0
VIAM,1/27/05,0.192708337,0.063651673,0.1,0.3,96,0
VIAM,1/28/05,0.175000003,0.059824306,0.1,0.3,96,0
VIAM,1/29/05,0.198958338,0.071810854,0.1,0.3,96,0
VIAM,1/30/05,0.222916672,0.058900753,0.1,0.3,96,0
VIAM,1/31/05,0.238541673,0.056883619,0.1,0.3,96,0
VIAM,2/1/05,0.226041672,0.069954562,0,0.4,96,0
VIAM,2/2/05,0.195833337,0.061416041,0,0.3,96,0
VIAM,2/3/05,0.23645834,0.06344462,0.1,0.3,96,0
VIAM,2/4/05,0.238541672,0.056883618,0.2,0.4,96,0
VIAM,2/5/05,0.187500004,0.083666006,0,0.3,96,0
VIAM,2/6/05,0.25833334,0.064345561,0.2,0.4,96,0
VIAM,2/7/05,0.250000007,0.058038104,0.2,0.4,96,0
VIAM,2/8/05,0.229166672,0.045691571,0.2,0.3,96,0
VIAM,2/9/05,0.225000005,0.113323015,0.1,0.5,96,0
VIAM,2/10/05,0.241666674,0.081649662,0,0.4,96,0
VIAM,2/11/05,0.171875003,0.067594965,0.1,0.3,96,0
VIAM,2/12/05,0.170833337,0.084500601,0,0.3,96,0
VIAM,2/13/05,0.145833337,0.104545805,0,0.3,96,0
VIAM,2/14/05,0.129166669,0.07936149,0,0.3,96,0
VIAM,2/15/05,0.103125002,0.103061685,-0.1,0.2,96,0
VIAM,2/16/05,0.184375004,0.062117252,0.1,0.3,96,0
VIAM,2/17/05,0.145833336,0.057886763,0,0.2,96,0
VIAM,2/18/05,0.17916667,0.057886764,0.1,0.3,96,0
VIAM,2/19/05,0.138541669,0.075908244,-0.1,0.2,96,0
VIAM,2/20/05,0.233333336,0.246519629,0,1.3,96,0
VIAM,2/21/05,2.27395833,0.88665483,1.2,3.8,96,0
VIAM,2/22/05,4.836458338,0.334387016,3.8,5.1,96,0
VIAM,2/23/05,4.959375039,0.112930355,4.8,5.2,96,0
VIAM,2/24/05,4.565624957,0.23343117,4,5,96,0
VIAM,2/25/05,4.436458362,0.211321546,3.8,4.8,96,0
VIAM,2/26/05,4.622916609,0.153196942,4.1,4.8,96,0
VIAM,2/27/05,4.497916609,0.182369867,4.2,4.8,96,0
VIAM,2/28/05,4.565624992,0.146415453,4.3,4.8,96,0
VIAM,3/1/05,4.518749962,0.164995979,4.1,4.8,96,0
VIAM,3/2/05,4.621874928,0.215310359,3.7,4.9,96,0
VIAM,3/3/05,4.925000037,0.114248074,4.7,5.1,96,0
VIAM,3/4/05,4.984375015,0.125091952,4.8,5.2,96,0
VIAM,3/5/05,4.983333349,0.099118831,4.8,5.1,96,0
VIAM,3/6/05,4.898958375,0.139544174,4.6,5.1,96,0
VIAM,3/7/05,4.819791734,0.136589912,4.5,5.1,96,0
VIAM,3/8/05,4.641666631,0.171474501,4.4,5,96,0
VIAM,3/9/05,4.508333335,0.183341256,4.1,4.8,96,0
VIAM,3/10/05,4.444791675,0.239679565,4.1,4.9,96,0
VIAM,3/11/05,4.48541672,0.230778638,4.1,4.9,96,0
VIAM,3/12/05,4.371875008,0.218946376,4,4.9,96,0
VIAM,3/13/05,4.293750023,0.269429247,3.8,4.9,96,0
VIAM,3/14/05,4.204166666,0.256255094,3.8,4.8,96,0
VIAM,3/15/05,4.162500009,0.272319485,3.7,4.8,96,0
VIAM,3/16/05,4.110416666,0.305899553,3.7,4.7,96,0
VIAM,3/17/05,4.23020832,0.28474171,3.8,4.8,96,0
VIAM,3/18/05,4.389583314,0.23551924,4,4.9,96,0
VIAM,3/19/05,4.290624991,0.216711346,3.9,4.7,96,0
VIAM,3/20/05,4.182291662,0.257516394,3.8,4.6,96,0
VIAM,3/21/05,4.070833343,0.307764977,3.4,4.6,96,0
VIAM,3/22/05,3.927083326,0.768796666,2.6,5.7,96,0
VIAM,3/23/05,3.440624987,0.165801457,3,3.7,96,0
VIAM,3/24/05,3.632291647,0.068816794,3.5,3.7,96,0
VIAM,3/25/05,3.638541656,0.07014244,3.5,3.7,96,0
VIAM,3/26/05,3.586458308,0.082869322,3.4,3.7,96,0
VIAM,3/27/05,3.526041644,0.084908333,3.3,3.7,96,0
VIAM,3/28/05,3.540624991,0.129434459,3.2,3.8,96,0
VIAM,3/29/05,3.495833327,0.079361436,3.3,3.6,96,0
VIAM,3/30/05,3.52291665,0.131772667,3.3,3.7,96,0
VIAM,3/31/05,3.692708361,0.039054084,3.6,3.8,96,0
VIAM,4/1/05,3.565624987,0.093839852,3.4,3.7,96,0
VIAM,4/2/05,3.498958312,0.125232213,3.3,3.7,96,0
VIAM,4/3/05,3.588541624,0.079299273,3.4,3.7,96,0
VIAM,4/4/05,3.657291683,0.086748033,3.4,3.8,96,0
VIAM,4/5/05,3.541666634,0.108255697,3.2,3.7,96,0
VIAM,4/6/05,3.676041668,0.06447327,3.5,3.8,96,0
VIAM,4/7/05,3.59687497,0.080069875,3.4,3.7,96,0
VIAM,4/8/05,3.29687496,0.236844647,2.9,3.6,96,0
VIAM,4/9/05,2.889583319,0.111901428,2.7,3.1,96,0
VIAM,4/10/05,2.996874976,0.180323146,2.6,3.3,96,0
VIAM,4/11/05,2.378124985,0.260850075,1.8,2.9,96,0
VIAM,4/12/05,2.098958306,0.227339223,1.8,2.6,96,0
VIAM,4/13/05,1.808333317,0.09588002,1.6,1.9,96,0
VIAM,4/14/05,1.859374978,0.116599269,1.6,2.1,96,0
VIAM,4/15/05,1.952083296,0.105610162,1.8,2.1,96,0
VIAM,4/16/05,1.848958311,0.087050849,1.7,2,96,0
VIAM,4/17/05,2.059375012,0.369231948,1.6,2.7,96,0
VIAM,4/18/05,2.311458349,0.084442197,2.2,2.5,96,0
VIAM,4/19/05,2.267708326,0.080124644,2.1,2.4,96,0
VIAM,4/20/05,2.632291665,0.296113348,2.1,3.1,96,0
VIAM,4/21/05,2.651041652,0.109539527,2.5,2.9,96,0
VIAM,4/22/05,3.49583331,0.657413865,2.6,4.7,96,0
VIAM,4/23/05,5.674999992,0.573997991,4.5,6.8,96,0
VIAM,4/24/05,6.879166673,0.195160729,6.5,7.1,96,0
VIAM,4/25/05,6.944791719,0.075211618,6.8,7.1,96,0
VIAM,4/26/05,7.072916597,0.106107259,6.9,7.2,96,0
VIAM,4/27/05,6.93750002,0.116302661,6.7,7.2,96,0
VIAM,4/28/05,6.730208317,0.079630581,6.6,6.9,96,0
VIAM,4/29/05,6.715624889,0.098758812,6.6,7,96,0
VIAM,4/30/05,6.68645826,0.074861071,6.6,6.8,96,0
VIAM,5/1/05,6.741666655,0.057430524,6.6,6.8,96,0
VIAM,5/2/05,6.722916648,0.081407699,6.6,6.9,96,0
VIAM,5/3/05,5.39791668,1.438784489,3.6,8.2,96,0